カタログに戻る

STARLINK-11745

運用中通信VLEO
NORAD 64376·PAYLOAD·🇺🇸 United States

打ち上げ Jun 13, 2025 から Cape Canaveral Space Force Station

Loading…

次のパス (今後24時間)

TLE

最新Source: CelesTrak SupGP

元期: Sep 14, 2026, 21:39 UTC

1 64376C 25127G   26257.90256944  .00074289  00000+0  57673-3 0  2571
2 64376  43.0008  24.0066 0001838 281.9713 337.3579 15.70812313    11

AllMySatでSTARLINK-11745をリアルタイム追跡

Download on the App Store